OBJECT L, 51834

Orbit data source: Space-Track

You're viewing an Uncataloged Satellite

Recently launched and/or uncataloged satellites may have evolving metadata. Metadata may include but not limited to: Owner, Maufacturer, Bus, Motor, and Mission.

OBJECT L, 51834 is a satellite owned by Changguang WJ (CN) in SSO that was launched on Sun, 27 Feb 2022 UTC via a CHANG ZHENG 8 launch vehicle from the Wenchang Satellite Launch Center (WSC). Unknown objects in Earth's orbit typically refer to objects detected orbiting the Earth but have not yet been identified or cataloged. These objects could be anything from previously untracked satellites, spent rocket stages, debris from satellite collisions, or even natural meteoroids temporarily captured by Earth's gravity.

Loading next visibility...
OBJECT L details
Identifier
51834, 2022-019L
Orbit
SSO
Last TLE update8 hours ago
Origin
Flag of CNChangguang WJ (CN / PRC)
ManufacturerChangguang WJ
MissionOperational Commercial Imaging
Bus & MotorJL-1, Unknown motor
Mass43 kg wet, 43 kg dry
Launch date (UTC)
2022-02-27 (3 years ago)
Launch vehicle
CHANG ZHENG 8
Launch site
Wenchang Satellite Launch Center (WSC)
Object typeUnknown
Shape & HBRBox + 2 Pan, 1.5 m
Radar Cross Section2.000 m², Medium (>0.1 m² and < 1m²)

Expand to show TLE details & history

TLE from 8 hours ago
0 OBJECT L
1 51834U 22019L   25014.92869570  .00024245  00000-0  77225-3 0  9996
2 51834  97.4117  94.0184 0007495 196.4784 163.6215 15.32526337159716
Epoch: 2025-01-14T22:17Z
Definitive object data (Epoch: 2025-01-14T22:17:19.308Z)
Latitude-0.00006°
Longitude5.05961°
Altitude476.31 km
Speed7.625 km/s
True Right ascension06h 16m 04s
True Declination0° 00' 00"
Sunlit
Object was in full shadow at TLE epoch
Visualization TLE readout
Latitude51.21896°
Longitude-3.86953°
Altitude480.663 km
Speed7.628 km/s
Apparent Right ascension22h 59m 46s
Apparent Declination36° 22' 23"
Sunlit
Object is in full shadow
Visualization observer readout
Local Sidereal Time07:00:17
Azimuth315.723° NNW
Elevation4.045°
Doppler factor1
Orbital elements
Apogee altitude470.356 km
Perigee altitude460.098 km
Semi-major axis6,843.364 km
Eccentricity0.0007495
Inclination97.4117°
RAAN94.0184°
Arg. of periapsis196.4784°
True anomaly163.6457°
Mean anomaly163.6215°
Eccentric anomaly163.6336°
Mean motion3.83388 °/min
BSTAR0.00077225
Orbital period93.9 mins
Loading maneuver chart data...
Loading historical data...
Loading historical data...
Loading historical data...
Loading historical data...
Loading historical data...
Loading historical data...
Loading historical data...

OBJECT L Visibility forecast

Observer location: undefined°, undefined

Span
Click to sort rows by Start time (UTC) header in descending order
Start Az.
Max El. time (UTC)
Max El. Az.
Max El.
End time (UTC)
End Az.
5 mins2025-01-15 17:39:55.780Z32.374° NE2025-01-15 17:41:55.780Z81.52° E33.902°2025-01-15 17:44:55.780Z168.909° S
5 mins2025-01-16 05:45:55.780Z212.695° SW2025-01-16 05:47:55.780Z261.783° W25.448°2025-01-16 05:50:55.780Z323.68° NNW
|